Eagle River, WI

1:23 AM CDT on June 23, 2017 (GMT -0500)
Eagle River Union

Weather History for KEGV - April, 2013

Change the Weather History Date:

Monday, April 8, 2013

  Actual Average Record
Temperature  
Mean Temperature 34 °F -  
Max Temperature 35 °F 47 °F 80 °F (1991)
Min Temperature 32 °F 25 °F 6 °F (1997)
Degree Days  
Heating Degree Days 32    
Moisture  
Dew Point 33 °F    
Average Humidity 98    
Maximum Humidity 100    
Minimum Humidity 87    
Precipitation  
Precipitation 0.33 in - - ()
Sea Level Pressure  
Sea Level Pressure 29.85 in    
Wind  
Wind Speed 4 mph (East)    
Max Wind Speed 9 mph    
Max Gust Speed -    
Visibility 6 miles    
Events Fog , Rain    
Averages and records for this station are not official NWS values.
T = Trace of Precipitation, MM = Missing Value Source: NWS Daily Summary

Daily Weather History Graph

Daily Weather History Graph

Search for Another Location

Airport or City:

Trip Planner

Search our weather history database for the weather conditions in past years. The results will help you decide how hot, cold, wet, or windy it might be!

Date:

Astronomy

Apr. 08, 2013 Rise Set
Actual Time 6:23 AM CDT 7:35 PM CDT
Civil Twilight 5:52 AM CDT 8:05 PM CDT
Nautical Twilight 5:15 AM CDT 8:42 PM CDT
Astronomical Twilight 4:36 AM CDT 9:22 PM CDT
Moon 5:18 AM CDT (4/8) 6:06 PM CDT (4/8)
Length of Visible Light 14h 13m
Length of Day
13h 11m
Waning Crescent, 3% of the Moon is Illuminated
Apr 8
Waning Crescent
Apr 10
New
Apr 18
First Quarter
Apr 25
Full
May 2
Last Quarter

Hourly Weather History & Observations

Time (CDT) Temp. Windchill Dew Point Humidity Pressure Visibility Wind Dir Wind Speed Gust Speed Precip Events Conditions
12:15 AM 32.0 °F 28.7 °F 28.4 °F 87% 29.86 in 10.0 mi SE 3.5 mph - N/A   Clear
12:55 AM 32.0 °F 28.7 °F 28.4 °F 87% 29.85 in 10.0 mi SE 3.5 mph - N/A   Clear
1:15 AM 32.0 °F 26.4 °F 28.4 °F 87% 29.85 in 10.0 mi SE 5.8 mph - N/A   Clear
1:35 AM 32.0 °F 27.5 °F 28.4 °F 87% 29.85 in 10.0 mi SSE 4.6 mph - N/A   Mostly Cloudy
1:55 AM 32.0 °F 27.5 °F 28.4 °F 87% 29.86 in 10.0 mi SE 4.6 mph - N/A   Overcast
2:15 AM 32.0 °F 28.7 °F 30.2 °F 93% 29.84 in 10.0 mi ESE 3.5 mph - N/A   Overcast
2:55 AM 32.0 °F 26.4 °F 30.2 °F 93% 29.84 in 10.0 mi ESE 5.8 mph - N/A   Overcast
3:15 AM 32.0 °F 27.5 °F 30.2 °F 93% 29.83 in 10.0 mi ESE 4.6 mph - N/A   Overcast
3:35 AM 32.0 °F 26.4 °F 30.2 °F 93% 29.83 in 10.0 mi ESE 5.8 mph - N/A   Overcast
3:55 AM 32.0 °F 26.4 °F 32.0 °F 100% 29.83 in 10.0 mi ESE 5.8 mph - N/A Rain Light Rain
4:15 AM 32.0 °F 28.7 °F 32.0 °F 100% 29.85 in 7.0 mi SSE 3.5 mph - N/A   Overcast
4:35 AM 32.0 °F - 32.0 °F 100% 29.86 in 3.0 mi Calm Calm - 0.01 in   Overcast
4:55 AM 32.0 °F 26.4 °F 32.0 °F 100% 29.83 in 5.0 mi East 5.8 mph - 0.02 in   Overcast
5:15 AM 32.0 °F 25.6 °F 32.0 °F 100% 29.80 in 7.0 mi ENE 6.9 mph - N/A   Overcast
5:35 AM 32.0 °F 25.6 °F 32.0 °F 100% 29.79 in 5.0 mi ENE 6.9 mph - N/A   Overcast
5:55 AM 32.0 °F 28.7 °F 32.0 °F 100% 29.80 in 4.0 mi East 3.5 mph - 0.01 in   Overcast
6:15 AM 32.0 °F - 32.0 °F 100% 29.83 in 2.5 mi Calm Calm - 0.01 in   Overcast
6:35 AM 32.0 °F 28.7 °F 32.0 °F 100% 29.84 in 1.5 mi ESE 3.5 mph - 0.03 in   Overcast
6:55 AM 32.0 °F 26.4 °F 32.0 °F 100% 29.84 in 1.8 mi SE 5.8 mph - 0.05 in   Overcast
7:15 AM 32.0 °F 25.6 °F 32.0 °F 100% 29.83 in 2.0 mi ESE 6.9 mph - 0.02 in   Overcast
7:35 AM 32.0 °F 24.2 °F 32.0 °F 100% 29.82 in 3.0 mi ESE 9.2 mph - 0.04 in   Overcast
7:55 AM 32.0 °F 26.4 °F 32.0 °F 100% 29.81 in 4.0 mi ESE 5.8 mph - 0.06 in   Overcast
8:15 AM 32.0 °F 28.7 °F 32.0 °F 100% 29.81 in 5.0 mi ESE 3.5 mph - 0.01 in   Overcast
8:35 AM 32.0 °F 25.6 °F 32.0 °F 100% 29.80 in 4.0 mi East 6.9 mph - 0.03 in Rain Light Rain
8:55 AM 32.0 °F 26.4 °F 32.0 °F 100% 29.79 in 5.0 mi East 5.8 mph - 0.03 in   Light Drizzle
9:15 AM 32.0 °F 27.5 °F 32.0 °F 100% 29.79 in 4.0 mi East 4.6 mph - N/A Rain Light Rain
9:35 AM 32.0 °F 24.8 °F 32.0 °F 100% 29.78 in 2.5 mi ESE 8.1 mph - 0.01 in Rain Light Rain
9:55 AM 32.0 °F 24.8 °F 32.0 °F 100% 29.78 in 4.0 mi ESE 8.1 mph - 0.02 in Rain Rain
10:15 AM 32.0 °F 25.6 °F 32.0 °F 100% 29.78 in 5.0 mi ESE 6.9 mph - 0.01 in Rain Light Rain
10:55 AM 33.8 °F 29.6 °F 32.0 °F 93% 29.78 in 7.0 mi ESE 4.6 mph - 0.01 in   Overcast
11:15 AM 33.8 °F 27.7 °F 32.0 °F 93% 29.79 in 7.0 mi ESE 6.9 mph - N/A Rain Light Rain
11:35 AM 33.8 °F 27.7 °F 33.8 °F 100% 29.78 in 4.0 mi ESE 6.9 mph - N/A Rain Light Rain
11:55 AM 33.8 °F 27.0 °F 33.8 °F 100% 29.76 in 4.0 mi ESE 8.1 mph - 0.01 in Rain Light Rain
12:15 PM 33.8 °F 30.8 °F 33.8 °F 100% 29.78 in 3.0 mi East 3.5 mph - 0.01 in Rain Rain
12:35 PM 33.8 °F 28.6 °F 33.8 °F 100% 29.77 in 3.0 mi East 5.8 mph - 0.02 in Rain Rain
12:55 PM 33.8 °F 28.6 °F 33.8 °F 100% 29.77 in 3.0 mi East 5.8 mph - 0.03 in Rain Rain
1:15 PM 33.8 °F 30.8 °F 33.8 °F 100% 29.77 in 3.0 mi East 3.5 mph - 0.02 in Rain Rain
1:35 PM 33.8 °F 28.6 °F 33.8 °F 100% 29.78 in 3.0 mi ENE 5.8 mph - 0.03 in Rain Rain
1:55 PM 33.8 °F - 33.8 °F 100% 29.80 in 5.0 mi Calm Calm - 0.05 in Rain Light Rain
2:15 PM 33.8 °F - 33.8 °F 100% 29.80 in 7.0 mi Calm Calm - 0.01 in Rain Light Rain
2:35 PM 33.8 °F - 33.8 °F 100% 29.81 in 10.0 mi Calm Calm - 0.02 in   Overcast
2:55 PM 33.8 °F - 33.8 °F 100% 29.82 in 7.0 mi Calm Calm - 0.03 in   Light Drizzle
3:15 PM 33.8 °F - 33.8 °F 100% 29.82 in 7.0 mi Calm Calm - N/A   Overcast
3:35 PM 35.6 °F - 33.8 °F 93% 29.82 in 10.0 mi Calm Calm - 0.01 in   Overcast
3:55 PM 33.8 °F 29.6 °F 33.8 °F 100% 29.82 in 10.0 mi ENE 4.6 mph - 0.01 in   Overcast
4:15 PM 35.6 °F 32.8 °F 33.8 °F 93% 29.82 in 10.0 mi NE 3.5 mph - N/A   Overcast
4:35 PM 35.6 °F 32.8 °F 33.8 °F 93% 29.84 in 10.0 mi NNE 3.5 mph - N/A   Overcast
4:55 PM 33.8 °F 28.6 °F 33.8 °F 100% 29.84 in 7.0 mi NNE 5.8 mph - N/A   Overcast
5:15 PM 33.8 °F 29.6 °F 33.8 °F 100% 29.85 in 10.0 mi NNE 4.6 mph - N/A   Overcast
5:35 PM 33.8 °F 30.8 °F 33.8 °F 100% 29.85 in 7.0 mi NNE 3.5 mph - N/A   Overcast
5:55 PM 33.8 °F 30.8 °F 33.8 °F 100% 29.86 in 10.0 mi NNE 3.5 mph - N/A   Overcast
6:15 PM 33.8 °F 30.8 °F 33.8 °F 100% 29.86 in 10.0 mi NE 3.5 mph - N/A   Overcast
6:55 PM 33.8 °F - 33.8 °F 100% 29.88 in 7.0 mi Calm Calm - N/A   Overcast
7:15 PM 33.8 °F - 33.8 °F 100% 29.90 in 7.0 mi Calm Calm - N/A   Overcast
7:55 PM 33.8 °F - 33.8 °F 100% 29.93 in 2.5 mi Calm Calm - N/A   Overcast
8:15 PM 33.8 °F - 33.8 °F 100% 29.95 in 3.0 mi Calm Calm - N/A   Overcast
8:55 PM 33.8 °F - 33.8 °F 100% 29.96 in 2.5 mi Calm Calm - N/A   Overcast
9:15 PM 33.8 °F - 33.8 °F 100% 29.97 in 1.5 mi Calm Calm - N/A   Overcast
9:35 PM 33.8 °F - 33.8 °F 100% 29.98 in 0.8 mi Calm Calm - N/A   Overcast
9:55 PM 33.8 °F - 33.8 °F 100% 29.99 in 1.0 mi Calm Calm - N/A   Overcast
10:15 PM 33.8 °F - 33.8 °F 100% 29.98 in 0.8 mi Calm Calm - N/A   Overcast
10:35 PM 33.8 °F - 33.8 °F 100% 29.99 in 1.0 mi Calm Calm - N/A   Overcast
10:55 PM 32.0 °F - 32.0 °F 100% 30.00 in 1.0 mi Calm Calm - N/A   Overcast
11:15 PM 33.8 °F - 33.8 °F 100% 30.00 in 1.0 mi Calm Calm - N/A   Overcast
11:35 PM 33.8 °F - 33.8 °F 100% 29.99 in 0.2 mi Calm Calm - N/A Fog Fog
11:55 PM 33.8 °F - 33.8 °F 100% 29.99 in 0.2 mi Calm Calm - N/A Fog Fog